Wind_Speed
17 17 17 17 16 15 15 14 14 14 13 14 14 14 15 16 17 18 20 20 20 21 21 22 22 23 23 22 23 23 22 22 22 22 23 22 22 22 21 20 20 22
19 20 20 20 20 18 17 17 16 16 15 14 13 12 12 14 16 18 20 20 21 22 23 23 24 24 24 24 24 23 23 22 21 21 22 21 21 21 21 21 20 20
21 21 22 22 21 20 19 19 19 18 17 16 16 14 14 14 15 18 21 22 23 23 24 24 24 24 25 24 24 23 22 22 22 22 22 21 21 21 21 21 21 22
21 22 22 23 23 22 22 21 22 21 19 18 17 16 15 15 16 19 21 23 24 24 24 25 25 26 26 26 25 24 24 24 24 24 23 23 23 23 23 23 23 23
21 21 22 22 23 23 23 24 24 23 21 20 18 17 17 17 18 21 23 24 25 25 25 26 27 27 28 28 28 27 27 27 27 27 26 26 26 25 26 27 25 25
20 21 21 21 22 23 24 25 24 23 23 21 20 19 19 19 21 22 24 25 26 27 27 28 29 30 31 30 29 29 29 29 28 28 27 27 28 27 28 29 28 28
20 20 19 20 21 24 25 26 26 25 24 23 22 22 22 23 23 24 25 26 27 29 30 31 32 32 33 32 30 28 28 28 28 28 27 28 29 30 29 30 29 28
18 17 17 18 20 24 25 26 26 26 25 25 25 24 24 24 24 25 26 27 29 31 31 32 33 34 34 34 31 29 29 29 29 29 28 27 28 29 28 27 27 26
18 18 18 18 20 22 24 25 25 26 26 26 27 26 25 25 25 26 27 28 30 32 33 34 35 35 35 35 33 29 28 29 29 28 28 26 25 26 26 26 26 25
21 20 20 21 22 22 23 24 25 26 26 26 26 26 26 26 26 26 28 29 30 31 33 34 36 37 37 37 35 32 30 30 30 28 26 24 24 25 26 25 25 25
24 23 23 23 23 23 23 24 25 26 26 26 25 25 26 26 26 27 28 29 29 29 32 34 35 37 38 38 36 34 32 30 30 28 25 23 23 24 25 25 24 24
23 24 24 23 23 23 23 23 24 24 25 25 24 24 25 25 25 26 27 28 28 28 30 33 35 36 38 39 37 35 33 31 30 28 26 24 24 24 25 25 24 24
22 23 22 22 22 22 22 22 22 22 23 23 23 23 23 24 24 25 25 27 28 28 29 31 34 36 38 39 39 36 34 33 31 29 27 26 26 26 25 25 25 25
21 21 20 20 19 19 20 21 21 20 20 20 20 20 21 21 22 22 23 24 26 27 28 30 33 36 38 39 38 37 35 34 33 31 28 25 26 28 28 28 27 26
19 19 18 17 16 17 18 18 18 18 18 18 19 20 20 20 20 21 22 24 25 26 28 30 32 34 36 37 36 36 35 34 34 33 30 27 25 27 30 29 29 28
16 16 16 16 17 17 18 18 19 20 21 22 22 22 21 20 20 20 22 23 25 26 27 29 31 32 33 35 35 35 34 34 34 34 32 29 26 27 29 29 28 29
15 15 15 16 17 18 19 21 23 24 25 25 24 24 23 21 21 21 22 23 24 25 27 28 30 31 32 34 35 35 35 34 34 34 33 31 28 27 28 29 29 29
17 17 17 17 18 19 20 23 24 25 26 25 24 24 23 23 22 22 22 23 24 25 26 27 28 29 31 33 34 35 36 35 35 35 34 33 30 27 26 28 29 29
21 20 19 19 18 18 20 22 24 24 24 24 24 23 23 23 23 22 22 23 24 25 26 26 27 28 30 32 33 34 36 37 36 35 35 34 33 30 27 28 28 28
22 22 21 19 18 18 19 21 22 23 23 24 24 24 24 23 23 23 23 23 24 25 25 26 26 27 28 30 32 34 36 37 37 37 36 36 35 33 30 29 28 27
21 21 20 19 18 18 19 20 21 22 23 24 25 25 25 24 23 23 23 24 24 24 25 25 26 26 27 28 31 34 36 37 37 37 38 37 36 35 32 30 28 26
19 20 20 19 19 19 19 19 20 22 23 24 25 26 26 25 24 23 23 24 24 25 26 26 26 26 26 28 31 34 35 37 38 38 38 38 37 35 33 30 27 26
17 18 18 18 18 18 18 18 20 22 23 24 25 26 27 27 25 24 23 23 25 26 27 27 27 27 26 27 30 33 35 36 37 38 38 38 37 35 33 30 27 26
16 16 17 17 17 17 17 18 20 22 23 24 25 26 27 27 26 24 23 23 25 27 28 27 27 27 26 26 28 31 33 35 35 36 37 37 36 34 31 29 28 27
14 15 15 15 15 16 16 17 19 20 22 23 24 25 26 26 26 26 25 23 24 25 27 27 28 28 27 27 27 29 32 33 34 35 35 34 33 31 28 28 28 29
13 13 13 13 14 14 15 16 18 19 21 23 23 23 24 26 27 27 27 25 24 24 25 26 28 29 29 28 27 27 29 31 33 34 33 32 31 29 27 28 31 33
Wind_Direction
54 56 58 59 60 57 51 47 43 42 40 36 32 32 32 22 10 10 14 14 16 15 12 10 6 2 359 353 347 344 343 342 341 340 337 335 333 331 329 321 313 309
61 62 65 65 66 65 62 60 58 55 52 49 44 42 38 27 18 18 19 17 16 14 11 8 4 1 358 353 348 345 343 341 339 336 334 332 330 330 331 329 323 318
67 64 64 66 67 67 66 64 62 59 57 55 51 48 44 38 31 25 23 22 20 16 14 10 7 5 1 357 352 349 348 348 346 342 340 339 338 335 332 330 327 324
71 67 65 65 65 64 62 60 58 56 55 54 51 48 45 41 35 29 27 27 25 22 19 16 13 11 8 4 0 358 356 355 353 351 348 347 348 347 345 342 334 329
72 69 65 63 61 59 57 55 54 52 51 51 50 49 46 43 38 33 31 30 28 25 23 20 18 16 13 10 8 7 4 1 359 357 354 353 354 354 353 350 343 337
73 69 65 61 58 56 55 54 53 51 49 48 50 51 49 47 41 35 33 32 30 28 26 23 21 18 16 14 13 12 8 4 2 0 357 356 356 356 356 354 349 344
77 72 69 63 59 57 57 56 53 51 50 51 52 52 49 45 40 37 35 34 32 30 28 25 23 19 16 15 14 13 12 9 5 3 360 356 356 355 355 356 351 346
77 75 73 69 64 61 58 55 52 50 51 52 52 51 49 45 40 38 37 35 33 31 28 27 24 21 17 15 14 12 12 11 8 5 0 355 355 355 353 352 349 345
75 74 74 72 68 63 58 55 54 52 52 52 52 50 48 46 41 39 37 35 33 31 28 26 25 22 19 16 14 12 11 10 8 6 2 354 351 352 351 349 349 348
75 73 71 69 68 64 60 58 55 53 51 50 50 49 47 44 41 39 36 34 32 29 27 26 24 22 20 18 16 13 11 10 8 6 0 353 348 349 350 350 349 348
74 71 70 70 69 65 61 57 53 50 48 47 47 46 44 42 39 37 35 33 30 27 25 25 23 21 20 19 17 15 13 11 9 7 0 353 350 349 350 351 349 347
74 71 71 71 69 64 59 55 50 47 44 43 43 42 40 39 37 36 34 32 30 27 25 24 23 21 19 19 18 16 14 10 8 6 2 358 355 352 350 349 348 347
78 74 74 72 68 64 58 52 48 43 40 40 39 38 37 34 34 34 33 32 31 28 24 23 22 21 19 18 18 17 15 11 7 5 1 0 1 358 355 351 348 347
82 78 76 74 70 64 56 49 45 41 38 37 36 35 34 32 32 33 33 33 31 28 25 23 22 21 18 17 15 15 16 13 10 7 1 358 359 359 360 356 352 350
85 80 77 74 69 62 55 48 44 43 42 41 39 37 35 33 33 33 32 32 30 29 27 24 22 20 18 16 14 13 15 14 12 11 7 0 356 357 359 358 354 351
87 81 76 71 68 64 58 54 52 50 48 45 43 40 38 36 35 35 35 32 30 29 28 26 23 19 17 18 17 15 14 14 12 12 9 4 357 354 355 354 351 350
88 82 77 74 73 69 64 59 55 51 48 45 42 40 38 38 37 37 36 34 32 30 28 27 23 18 17 18 18 17 16 14 12 11 9 5 359 354 352 350 349 348
87 84 82 81 79 72 65 58 52 49 46 42 40 38 38 39 39 38 36 35 34 32 29 28 23 18 18 18 18 19 18 15 13 11 8 5 0 355 350 349 349 346
89 88 87 86 81 73 65 58 52 49 45 41 40 39 39 40 40 39 37 35 34 33 30 28 24 20 18 18 18 19 18 16 14 10 7 4 1 357 352 349 349 346
93 91 90 87 82 75 68 62 56 51 48 45 43 42 41 41 40 39 38 35 33 33 31 28 26 21 19 18 18 18 18 16 14 11 7 4 1 359 355 351 349 348
95 92 90 86 82 77 71 65 58 53 50 48 46 45 43 41 40 38 37 35 33 32 31 29 27 24 21 19 18 17 17 15 13 10 7 4 2 1 358 354 352 350
97 93 90 85 81 77 72 66 59 54 51 48 48 48 45 43 41 38 36 35 33 32 30 29 28 26 23 21 18 17 15 14 12 10 6 3 1 0 358 356 355 352
100 95 91 86 82 77 72 67 60 55 51 49 48 47 45 43 41 39 38 37 35 33 30 29 29 26 22 20 19 17 15 13 11 8 5 2 360 359 358 357 357 355
104 98 93 89 84 78 74 68 62 56 52 50 49 48 46 45 42 42 43 41 37 34 31 30 30 26 21 20 20 18 15 13 10 6 4 1 359 358 357 357 357 355
110 102 97 92 86 80 74 68 63 58 53 51 51 50 49 47 45 44 43 41 38 34 32 30 30 28 22 19 19 18 15 13 10 7 3 360 358 357 356 358 358 358
116 109 102 95 88 80 74 68 63 58 53 50 50 51 50 48 47 45 43 41 37 34 31 30 29 27 24 20 19 20 17 15 13 9 4 360 359 358 357 358 0 2
Height
840 840 839 839 839 839 839 839 838 838 838 838 838 838 837 837 836 834 833 832 831 830 828 826 825 823 822 821 820 818 816 815 813 812 811 810 808 807 806 805 804 803
842 842 842 842 841 841 841 841 840 840 840 840 840 839 839 838 837 835 834 832 831 829 827 826 824 823 821 820 818 817 815 813 811 810 809 808 806 805 803 802 801 800
845 845 845 844 844 844 843 843 842 842 842 842 841 841 840 839 838 837 835 833 831 830 828 826 825 823 821 820 818 816 813 811 809 808 807 806 804 803 801 800 799 798
847 847 847 847 846 846 845 845 844 843 843 842 842 842 841 840 839 838 837 835 833 832 830 828 826 824 822 820 818 815 813 811 809 807 806 804 803 802 800 798 797 795
850 849 849 849 849 848 847 846 845 845 844 843 843 843 842 841 840 839 838 836 835 833 831 829 827 825 823 821 818 816 813 811 810 808 806 804 803 801 799 797 795 793
851 851 851 851 850 849 848 847 846 845 845 844 844 843 843 842 841 840 839 837 836 834 832 830 828 826 824 821 819 817 815 813 811 809 807 804 802 801 799 797 795 792
853 853 852 852 852 851 849 848 848 847 846 846 845 844 844 843 842 841 840 839 837 835 833 831 829 827 825 822 820 818 816 813 811 809 807 805 802 800 798 796 794 792
854 854 854 854 852 851 851 850 849 849 848 847 846 845 845 844 844 843 841 840 838 836 834 832 830 828 826 823 821 818 816 814 812 809 807 805 803 801 798 796 794 792
855 855 855 854 853 852 852 851 851 851 850 849 848 847 847 846 845 844 842 841 839 837 835 833 831 829 827 824 822 819 817 815 813 811 809 807 804 802 799 797 794 792
857 856 855 854 854 854 854 853 853 852 851 850 850 849 848 847 846 845 843 841 839 838 836 834 831 830 828 825 823 820 818 816 814 812 810 808 806 804 801 798 795 792
858 857 856 855 856 856 856 855 854 854 853 852 851 850 849 848 847 846 844 842 840 838 837 835 833 831 828 826 823 821 819 817 815 813 812 810 807 805 802 799 796 793
859 858 858 858 858 858 857 857 856 855 854 853 853 852 851 849 848 846 845 843 841 840 838 836 834 832 830 827 824 822 820 818 816 815 813 810 808 805 802 800 797 794
860 860 860 860 860 860 859 858 857 857 856 855 854 853 852 851 849 847 846 844 843 841 840 838 836 834 831 828 826 823 821 819 817 815 812 810 808 805 802 800 797 794
863 863 863 863 862 862 861 860 860 859 858 857 856 854 853 852 850 849 847 846 844 843 841 840 837 835 832 830 828 825 823 820 818 815 812 810 807 804 802 799 797 794
865 865 865 864 864 863 863 862 862 861 860 858 857 855 854 853 852 850 848 847 846 844 843 841 838 836 835 833 830 827 824 821 819 815 812 810 807 804 802 799 796 793
866 866 866 866 865 865 865 865 864 863 861 859 858 856 855 854 853 851 850 849 847 846 844 842 840 839 838 835 832 829 826 822 819 816 813 811 808 804 801 799 796 793
867 867 867 867 867 868 868 867 866 864 862 861 859 858 857 855 854 852 851 850 849 847 845 843 842 841 839 836 834 831 827 823 820 817 814 812 809 805 802 799 796 793
869 868 869 869 870 870 870 869 867 865 864 862 861 860 858 856 855 854 853 852 850 848 847 845 844 842 840 837 834 831 828 825 822 819 816 813 810 807 804 800 796 793
870 871 871 872 872 872 871 870 868 867 866 864 863 862 859 858 856 855 854 853 851 850 848 847 845 843 841 838 836 833 830 827 824 820 817 814 811 808 805 801 798 794
873 873 873 874 874 873 872 871 870 869 868 866 864 862 860 859 858 856 855 854 853 851 850 848 846 844 842 840 837 834 831 828 825 822 818 815 812 809 806 802 799 795
875 875 875 875 875 874 873 873 872 871 870 868 866 864 862 861 859 858 857 855 854 853 851 849 847 845 843 840 838 835 831 828 825 822 819 816 813 810 807 803 800 797
877 876 876 876 876 875 875 874 874 873 871 869 867 865 863 862 860 859 858 857 856 854 852 850 848 846 844 841 838 835 832 829 826 823 819 816 813 810 807 804 801 798
878 877 877 877 877 877 877 876 875 874 872 870 868 866 865 863 862 861 860 858 857 855 853 851 849 847 845 842 839 836 833 830 827 823 820 817 813 810 808 805 802 800
878 878 878 878 878 878 878 877 876 874 873 872 870 868 867 865 864 863 862 860 858 856 854 852 850 848 846 843 840 837 834 831 828 825 821 817 814 811 808 805 803 800
879 879 879 879 879 879 879 878 877 875 874 873 871 870 869 868 866 865 863 861 860 858 856 853 851 849 846 844 842 839 836 833 830 826 823 819 815 812 809 806 803 800
880 880 880 880 880 880 879 878 878 876 875 874 873 872 871 870 868 866 864 863 861 859 856 854 852 850 847 845 843 840 838 835 832 828 825 821 818 815 811 807 804 800